TimeEDT,TemperatureF,Dew PointF,Humidity,Sea Level PressureIn,VisibilityMPH,Wind Direction,Wind SpeedMPH,Gust SpeedMPH,PrecipitationIn,Events,Conditions,WindDirDegrees,DateUTC
12:53 AM,63.0,61.0,93,29.56,10.0,Calm,Calm,-,N/A,,Clear,0,2013-06-29 04:53:00
1:53 AM,64.0,61.0,90,29.54,10.0,South,3.5,-,N/A,,Clear,190,2013-06-29 05:53:00
2:53 AM,62.1,60.1,93,29.53,10.0,Calm,Calm,-,N/A,,Clear,0,2013-06-29 06:53:00
3:53 AM,62.1,59.0,90,29.53,10.0,SW,3.5,-,N/A,,Clear,230,2013-06-29 07:53:00
4:53 AM,62.1,60.1,93,29.54,6.0,Calm,Calm,-,N/A,,Clear,0,2013-06-29 08:53:00
5:53 AM,60.1,57.9,93,29.56,2.5,SW,3.5,-,N/A,,Clear,230,2013-06-29 09:53:00
6:00 AM,60.8,59.0,94,29.57,3.0,Calm,Calm,-,N/A,,Clear,0,2013-06-29 10:00:00
6:08 AM,60.8,59.0,94,29.57,2.5,Calm,Calm,-,N/A,,Clear,0,2013-06-29 10:08:00
6:40 AM,60.8,59.0,94,29.58,3.0,Calm,Calm,-,N/A,,Partly Cloudy,0,2013-06-29 10:40:00
6:53 AM,61.0,59.0,93,29.57,3.0,Calm,Calm,-,N/A,,Clear,0,2013-06-29 10:53:00
7:53 AM,64.0,61.0,90,29.56,4.0,Calm,Calm,-,N/A,,Clear,0,2013-06-29 11:53:00
8:53 AM,69.1,62.1,78,29.57,10.0,North,3.5,-,N/A,,Clear,350,2013-06-29 12:53:00
9:53 AM,72.0,63.0,73,29.58,10.0,North,4.6,-,N/A,,Mostly Cloudy,360,2013-06-29 13:53:00
10:53 AM,72.0,61.0,68,29.58,10.0,Calm,Calm,-,N/A,,Overcast,0,2013-06-29 14:53:00
11:53 AM,75.9,61.0,60,29.58,10.0,North,4.6,-,N/A,,Scattered Clouds,360,2013-06-29 15:53:00
12:53 PM,73.9,61.0,64,29.57,10.0,SW,4.6,-,N/A,,Mostly Cloudy,220,2013-06-29 16:53:00
1:53 PM,73.0,64.0,73,29.57,10.0,NNE,9.2,-,N/A,,Overcast,20,2013-06-29 17:53:00
2:25 PM,71.6,64.4,78,29.60,10.0,NNE,5.8,-,N/A,Thunderstorm,Mostly Cloudy,20,2013-06-29 18:25:00
2:53 PM,72.0,63.0,73,29.58,10.0,ENE,5.8,-,N/A,Thunderstorm,Thunderstorm,70,2013-06-29 18:53:00
3:42 PM,69.8,64.4,83,29.61,10.0,SE,4.6,-,N/A,,Overcast,130,2013-06-29 19:42:00
3:53 PM,70.0,63.0,78,29.59,10.0,SE,3.5,-,N/A,,Mostly Cloudy,130,2013-06-29 19:53:00
4:53 PM,72.0,63.0,73,29.60,10.0,Variable,4.6,-,0.00,Rain,Light Rain,0,2013-06-29 20:53:00
5:53 PM,73.0,64.0,73,29.61,10.0,ENE,3.5,28.8,0.00,,Partly Cloudy,60,2013-06-29 21:53:00
6:25 PM,73.4,64.4,73,29.63,10.0,NNE,4.6,-,N/A,,Mostly Cloudy,20,2013-06-29 22:25:00
6:53 PM,73.0,63.0,71,29.61,10.0,North,6.9,-,N/A,,Mostly Cloudy,10,2013-06-29 22:53:00
7:49 PM,71.6,62.6,73,29.65,10.0,NE,8.1,-,N/A,,Scattered Clouds,50,2013-06-29 23:49:00
7:53 PM,71.1,63.0,75,29.63,10.0,NE,8.1,-,N/A,,Partly Cloudy,50,2013-06-29 23:53:00
8:34 PM,71.6,62.6,73,29.66,10.0,NNE,5.8,-,N/A,Thunderstorm,Thunderstorm,20,2013-06-30 00:34:00
8:53 PM,70.0,64.0,81,29.64,10.0,NE,6.9,-,N/A,Thunderstorm,Overcast,40,2013-06-30 00:53:00
9:11 PM,69.8,64.4,83,29.67,10.0,ENE,6.9,-,N/A,,Overcast,60,2013-06-30 01:11:00
9:53 PM,69.1,63.0,81,29.66,10.0,ENE,10.4,-,N/A,,Overcast,60,2013-06-30 01:53:00
10:53 PM,68.0,64.0,87,29.67,7.0,ENE,6.9,-,0.01,Rain,Light Rain,60,2013-06-30 02:53:00
11:53 PM,66.9,63.0,87,29.68,10.0,ENE,4.6,-,0.00,,Mostly Cloudy,60,2013-06-30 03:53:00